Home   Weather   Bardufoss   Past weeks

Flag for Norway Past Weather in Bardufoss, Norway — Yesterday and Last 2 Weeks

Now
39 °F

Passing clouds.


Feels Like: 36 °F
Forecast: 19 / 41 °F
Wind: 5 mph from East

Location: Bardufoss

Current Time: Apr 29, 2017 at 12:00:28 pm

Latest Report: Apr 29, 2017 at 11:20 am


Visibility: N/A

Pressure: 30.45 "Hg

Humidity: 33%

Dew Point: 12 °F

Location of BardufossLocation

Past Weather in Bardufoss — Graph

°F

Bardufoss Temperature Yesterday

Maximum temperature yesterday: 45 °F (at 2:50 pm)
Minimum temperature yesterday: 18 °F (at 3:50 am)
Average temperature yesterday: 32 °F

High & Low Weather Summary for the Past Weeks

 TemperatureHumidityPressure
High45 °F (Apr 28, 2:50 pm)100% (Apr 22, 1:20 am)30.45 "Hg (Apr 22, 1:20 am)
Low9 °F (Apr 15, 3:50 am)28% (Apr 29, 10:50 am)29.00 "Hg (Apr 21, 7:50 am)
Average30 °F63%29.86 "Hg
* Reported Apr 14 10:20 am — Apr 29 10:50 am, Bardufoss, Weather by CustomWeather, © 2017

Note: Actual official high and low records may vary slightly from our data, if they occured in-between our weather recording intervals... More about our weather records

Advertising

Bardufoss Weather History for the Previous 24 Hours

Scroll right to see more
 ConditionsComfort  
Time TempWeatherWind HumidityBarometerVisibility
10:50 am
Sat, Apr 29
41 °FSunny.2 mph28%30.45 "Hg10 mi
10:20 am41 °FSunny.1 mph31%30.45 "Hg10 mi
9:20 am37 °FSunny.No wind35%30.45 "Hg10 mi
8:50 am37 °FSunny.1 mph35%30.45 "Hg10 mi
8:20 am34 °FSunny.1 mph44%30.45 "Hg10 mi
7:50 am32 °FSunny.1 mph47%30.45 "Hg10 mi
7:20 am28 °FSunny.2 mph55%30.45 "Hg10 mi
6:50 am28 °FSunny.No wind59%30.45 "Hg10 mi
6:20 am25 °FSunny.No wind69%30.45 "Hg10 mi
5:50 am23 °FCold.No wind74%30.45 "HgN/A
5:20 am19 °FCold.No wind86%30.45 "HgN/A
4:50 am19 °FCold.No wind79%30.45 "HgN/A
4:20 am19 °FCold.2 mph86%30.45 "HgN/A
3:50 am18 °FCold.No wind93%30.45 "HgN/A
3:20 am19 °FCold.2 mph86%30.45 "HgN/A
2:50 am18 °FCold.1 mph93%30.42 "HgN/A
2:20 am21 °FCold.2 mph93%30.42 "HgN/A
1:50 am19 °FCold.No wind93%30.42 "HgN/A
1:20 am23 °FCold.2 mph86%30.42 "HgN/A
12:50 am23 °FCold.No wind86%30.42 "HgN/A
12:20 am23 °FCold.2 mph80%30.42 "HgN/A
11:50 pm
Fri, Apr 28
25 °FCold.No wind80%30.39 "HgN/A
11:20 pm27 °FChilly.No wind74%30.39 "HgN/A
10:50 pm27 °FClear.1 mph74%30.39 "Hg10 mi
9:50 pm32 °FClear.2 mph60%30.39 "Hg10 mi
8:50 pm37 °FSunny.7 mph48%30.36 "Hg10 mi
7:50 pm41 °FSunny.3 mph36%30.36 "Hg10 mi
6:50 pm43 °FSunny.3 mph31%30.33 "Hg10 mi
6:20 pm43 °FPassing clouds.5 mph34%30.33 "HgN/A
5:50 pm41 °FSunny.7 mph39%30.33 "Hg10 mi
5:20 pm41 °FSunny.8 mph39%30.33 "Hg10 mi
4:50 pm43 °FPassing clouds.3 mph34%30.33 "HgN/A
4:20 pm43 °FPassing clouds.5 mph31%30.30 "HgN/A
3:50 pm43 °FPassing clouds.7 mph34%30.30 "HgN/A
3:20 pm43 °FPassing clouds.7 mph34%30.30 "HgN/A
2:50 pm45 °FPassing clouds.5 mph31%30.30 "HgN/A
2:20 pm43 °FPassing clouds.6 mph36%30.30 "HgN/A
1:50 pm43 °FPassing clouds.6 mph36%30.30 "HgN/A
12:50 pm41 °FSunny.3 mph42%30.27 "Hg10 mi
12:20 pm41 °FSunny.3 mph39%30.27 "Hg10 mi
Weather by CustomWeather, © 2017

See weather overviewHow to use our weather pages